Time,TemperatureF,DewpointF,PressureIn,WindDirection,WindDirectionDegrees,WindSpeedMPH,WindSpeedGustMPH,Humidity,HourlyPrecipIn,Conditions,Clouds,dailyrainin,SoftwareType,DateUTC
2013-02-28 00:10:00,32.5,28.0,30.06,WNW,294,6.0,6.0,83,0.00,,,0.00,weatherlink.com 1.10,2013-02-28 06:10:00,
2013-02-28 00:25:00,32.6,28.0,30.06,NW,304,3.0,6.0,84,0.00,,,0.00,weatherlink.com 1.10,2013-02-28 06:25:00,
2013-02-28 00:40:00,32.5,28.0,30.07,WNW,302,2.0,8.0,84,0.00,,,0.00,weatherlink.com 1.10,2013-02-28 06:40:00,
2013-02-28 00:55:00,32.5,28.0,30.06,North,360,7.0,9.0,84,0.00,,,0.00,weatherlink.com 1.10,2013-02-28 06:55:00,
2013-02-28 01:10:00,32.3,28.0,30.06,NNE,22,4.0,8.0,84,0.00,,,0.00,weatherlink.com 1.10,2013-02-28 07:10:00,
2013-02-28 01:25:00,32.2,28.0,30.06,NNW,343,2.0,9.0,84,0.00,,,0.00,weatherlink.com 1.10,2013-02-28 07:25:00,
2013-02-28 01:40:00,32.0,28.0,30.07,NE,44,2.0,7.0,84,0.00,,,0.00,weatherlink.com 1.10,2013-02-28 07:40:00,
2013-02-28 01:55:00,31.8,28.0,30.07,WNW,293,1.0,6.0,84,0.00,,,0.00,weatherlink.com 1.10,2013-02-28 07:55:00,
2013-02-28 02:10:00,31.7,27.0,30.07,WNW,294,1.0,5.0,84,0.00,,,0.00,weatherlink.com 1.10,2013-02-28 08:10:00,
2013-02-28 02:25:00,31.6,27.0,30.07,WNW,300,1.0,5.0,84,0.00,,,0.00,weatherlink.com 1.10,2013-02-28 08:25:00,
2013-02-28 02:40:00,31.4,27.0,30.08,ENE,74,2.0,6.0,83,0.00,,,0.00,weatherlink.com 1.10,2013-02-28 08:40:00,
2013-02-28 02:55:00,31.3,27.0,30.08,NW,304,4.0,9.0,83,0.00,,,0.00,weatherlink.com 1.10,2013-02-28 08:55:00,
2013-02-28 03:10:00,31.2,27.0,30.08,NW,326,1.0,9.0,83,0.00,,,0.00,weatherlink.com 1.10,2013-02-28 09:10:00,
2013-02-28 03:25:00,31.0,27.0,30.08,West,281,4.0,6.0,84,0.00,,,0.00,weatherlink.com 1.10,2013-02-28 09:25:00,
2013-02-28 03:40:00,30.9,26.0,30.08,NW,317,1.0,8.0,83,0.00,,,0.00,weatherlink.com 1.10,2013-02-28 09:40:00,
2013-02-28 03:55:00,30.7,26.0,30.08,NNW,339,4.0,7.0,83,0.00,,,0.00,weatherlink.com 1.10,2013-02-28 09:55:00,
2013-02-28 04:10:00,30.4,26.0,30.08,NNE,30,3.0,7.0,83,0.00,,,0.00,weatherlink.com 1.10,2013-02-28 10:10:00,
2013-02-28 04:26:00,30.0,25.0,30.09,North,350,2.0,10.0,83,0.00,,,0.00,weatherlink.com 1.10,2013-02-28 10:26:00,
2013-02-28 04:41:00,29.7,25.0,30.09,WNW,294,4.0,8.0,82,0.00,,,0.00,weatherlink.com 1.10,2013-02-28 10:41:00,
2013-02-28 04:56:00,29.9,25.0,30.10,NNE,29,5.0,13.0,82,0.00,,,0.00,weatherlink.com 1.10,2013-02-28 10:56:00,
2013-02-28 05:11:00,29.9,25.0,30.11,NNW,341,2.0,8.0,83,0.00,,,0.00,weatherlink.com 1.10,2013-02-28 11:11:00,
2013-02-28 05:26:00,29.7,25.0,30.11,NNW,340,2.0,8.0,83,0.00,,,0.00,weatherlink.com 1.10,2013-02-28 11:26:00,
2013-02-28 05:41:00,29.4,25.0,30.12,NNW,344,4.0,9.0,83,0.00,,,0.00,weatherlink.com 1.10,2013-02-28 11:41:00,
2013-02-28 05:56:00,29.0,25.0,30.12,WNW,290,4.0,11.0,83,0.00,,,0.00,weatherlink.com 1.10,2013-02-28 11:56:00,
2013-02-28 06:11:00,28.7,24.0,30.13,NW,326,3.0,11.0,83,0.00,,,0.00,weatherlink.com 1.10,2013-02-28 12:11:00,
2013-02-28 06:26:00,28.5,24.0,30.13,North,356,5.0,11.0,84,0.00,,,0.00,weatherlink.com 1.10,2013-02-28 12:26:00,
2013-02-28 06:41:00,28.4,24.0,30.14,NNE,23,5.0,16.0,84,0.00,,,0.00,weatherlink.com 1.10,2013-02-28 12:41:00,
2013-02-28 06:56:00,28.3,24.0,30.15,NW,312,3.0,10.0,85,0.00,,,0.00,weatherlink.com 1.10,2013-02-28 12:56:00,
2013-02-28 07:11:00,28.3,24.0,30.15,NNW,339,1.0,7.0,85,0.00,,,0.00,weatherlink.com 1.10,2013-02-28 13:11:00,
2013-02-28 07:26:00,28.2,24.0,30.16,North,11,2.0,8.0,85,0.00,,,0.00,weatherlink.com 1.10,2013-02-28 13:26:00,
2013-02-28 07:41:00,28.2,25.0,30.16,North,350,0.0,5.0,86,0.00,,,0.00,weatherlink.com 1.10,2013-02-28 13:41:00,
2013-02-28 07:56:00,28.3,25.0,30.16,NW,312,0.0,6.0,86,0.00,,,0.00,weatherlink.com 1.10,2013-02-28 13:56:00,
2013-02-28 08:11:00,28.5,25.0,30.16,West,270,0.0,3.0,86,0.00,,,0.00,weatherlink.com 1.10,2013-02-28 14:11:00,
2013-02-28 08:27:00,28.4,25.0,30.17,North,1,3.0,6.0,85,0.00,,,0.00,weatherlink.com 1.10,2013-02-28 14:27:00,
2013-02-28 08:41:00,28.4,24.0,30.17,NNW,328,2.0,8.0,84,0.00,,,0.00,weatherlink.com 1.10,2013-02-28 14:41:00,
2013-02-28 08:56:00,28.6,24.0,30.18,WNW,297,4.0,10.0,84,0.00,,,0.00,weatherlink.com 1.10,2013-02-28 14:56:00,
2013-02-28 09:11:00,29.0,25.0,30.18,NNW,344,8.0,8.0,83,0.00,,,0.00,weatherlink.com 1.10,2013-02-28 15:11:00,
2013-02-28 09:26:00,29.1,25.0,30.18,NNE,18,2.0,7.0,83,0.00,,,0.00,weatherlink.com 1.10,2013-02-28 15:26:00,
2013-02-28 09:41:00,29.3,25.0,30.19,NW,323,2.0,7.0,83,0.00,,,0.00,weatherlink.com 1.10,2013-02-28 15:41:00,
2013-02-28 09:56:00,29.4,25.0,30.19,WNW,301,3.0,7.0,83,0.00,,,0.00,weatherlink.com 1.10,2013-02-28 15:56:00,
2013-02-28 10:11:00,29.6,25.0,30.19,WNW,301,7.0,8.0,82,0.00,,,0.00,weatherlink.com 1.10,2013-02-28 16:11:00,
2013-02-28 10:26:00,30.2,25.0,30.20,NE,49,5.0,7.0,81,0.00,,,0.00,weatherlink.com 1.10,2013-02-28 16:26:00,
2013-02-28 10:41:00,30.6,25.0,30.19,NNW,338,2.0,7.0,80,0.00,,,0.00,weatherlink.com 1.10,2013-02-28 16:41:00,
2013-02-28 10:56:00,30.6,25.0,30.20,WNW,294,3.0,8.0,81,0.00,,,0.00,weatherlink.com 1.10,2013-02-28 16:56:00,
2013-02-28 11:11:00,31.0,26.0,30.20,ENE,78,4.0,6.0,80,0.00,,,0.00,weatherlink.com 1.10,2013-02-28 17:11:00,
2013-02-28 11:26:00,30.9,25.0,30.20,NW,321,1.0,7.0,80,0.00,,,0.00,weatherlink.com 1.10,2013-02-28 17:26:00,
2013-02-28 11:41:00,31.1,26.0,30.21,NE,43,2.0,9.0,80,0.00,,,0.00,weatherlink.com 1.10,2013-02-28 17:41:00,
2013-02-28 11:56:00,31.6,26.0,30.21,NNE,15,6.0,8.0,79,0.00,,,0.00,weatherlink.com 1.10,2013-02-28 17:56:00,
2013-02-28 12:11:00,31.9,26.0,30.20,WNW,284,2.0,8.0,78,0.00,,,0.00,weatherlink.com 1.10,2013-02-28 18:11:00,
2013-02-28 12:26:00,32.2,26.0,30.20,NW,314,0.0,6.0,78,0.00,,,0.00,weatherlink.com 1.10,2013-02-28 18:26:00,
2013-02-28 12:42:00,32.2,26.0,30.20,WNW,288,1.0,7.0,77,0.00,,,0.00,weatherlink.com 1.10,2013-02-28 18:42:00,
2013-02-28 12:57:00,32.2,26.0,30.20,WNW,288,3.0,5.0,78,0.00,,,0.00,weatherlink.com 1.10,2013-02-28 18:57:00,
2013-02-28 13:12:00,32.1,26.0,30.20,NNE,23,7.0,7.0,78,0.00,,,0.00,weatherlink.com 1.10,2013-02-28 19:12:00,
2013-02-28 13:27:00,32.3,26.0,30.20,NW,323,2.0,6.0,78,0.00,,,0.00,weatherlink.com 1.10,2013-02-28 19:27:00,
2013-02-28 13:42:00,32.2,26.0,30.20,NW,307,1.0,7.0,78,0.00,,,0.00,weatherlink.com 1.10,2013-02-28 19:42:00,
2013-02-28 13:58:00,32.1,26.0,30.19,NW,304,3.0,7.0,78,0.00,,,0.00,weatherlink.com 1.10,2013-02-28 19:58:00,
2013-02-28 14:12:00,32.2,26.0,30.19,NNE,30,2.0,6.0,79,0.00,,,0.00,weatherlink.com 1.10,2013-02-28 20:12:00,
2013-02-28 14:27:00,32.0,27.0,30.19,West,276,1.0,4.0,80,0.00,,,0.00,weatherlink.com 1.10,2013-02-28 20:27:00,
2013-02-28 14:42:00,31.7,26.0,30.19,North,352,4.0,6.0,80,0.00,,,0.00,weatherlink.com 1.10,2013-02-28 20:42:00,
2013-02-28 14:57:00,31.5,26.0,30.19,NNE,30,2.0,6.0,81,0.00,,,0.00,weatherlink.com 1.10,2013-02-28 20:57:00,
2013-02-28 15:12:00,31.3,26.0,30.20,NNW,348,1.0,6.0,81,0.00,,,0.00,weatherlink.com 1.10,2013-02-28 21:12:00,
2013-02-28 15:27:00,31.2,26.0,30.19,North,6,1.0,5.0,82,0.00,,,0.00,weatherlink.com 1.10,2013-02-28 21:27:00,
2013-02-28 15:42:00,31.2,26.0,30.19,WNW,285,0.0,5.0,82,0.00,,,0.00,weatherlink.com 1.10,2013-02-28 21:42:00,
2013-02-28 15:57:00,31.9,27.0,30.19,NW,317,2.0,5.0,81,0.00,,,0.00,weatherlink.com 1.10,2013-02-28 21:57:00,
2013-02-28 16:12:00,31.8,27.0,30.19,North,358,0.0,5.0,81,0.00,,,0.00,weatherlink.com 1.10,2013-02-28 22:12:00,
2013-02-28 16:42:00,31.6,26.0,30.20,WNW,298,2.0,4.0,81,0.00,,,0.00,weatherlink.com 1.10,2013-02-28 22:42:00,
2013-02-28 16:57:00,31.4,27.0,30.20,West,264,1.0,4.0,82,0.00,,,0.00,weatherlink.com 1.10,2013-02-28 22:57:00,
2013-02-28 17:12:00,31.3,27.0,30.20,NW,309,2.0,2.0,83,0.00,,,0.00,weatherlink.com 1.10,2013-02-28 23:12:00,
2013-02-28 17:27:00,30.9,26.0,30.20,North,10,1.0,3.0,83,0.00,,,0.00,weatherlink.com 1.10,2013-02-28 23:27:00,
2013-02-28 17:42:00,30.7,26.0,30.21,WNW,303,2.0,3.0,83,0.00,,,0.00,weatherlink.com 1.10,2013-02-28 23:42:00,
2013-02-28 17:57:00,30.6,26.0,30.21,WNW,297,2.0,3.0,83,0.00,,,0.00,weatherlink.com 1.10,2013-02-28 23:57:00,
2013-02-28 18:12:00,30.4,26.0,30.21,NNE,14,0.0,4.0,83,0.00,,,0.00,weatherlink.com 1.10,2013-03-01 00:12:00,
2013-02-28 18:27:00,30.3,26.0,30.21,WNW,288,0.0,3.0,84,0.00,,,0.00,weatherlink.com 1.10,2013-03-01 00:27:00,
2013-02-28 18:42:00,30.2,26.0,30.21,WNW,294,1.0,3.0,84,0.00,,,0.00,weatherlink.com 1.10,2013-03-01 00:42:00,
2013-02-28 18:57:00,30.2,26.0,30.21,WNW,284,0.0,2.0,84,0.00,,,0.00,weatherlink.com 1.10,2013-03-01 00:57:00,
2013-02-28 19:12:00,30.1,26.0,30.22,NW,318,2.0,5.0,84,0.00,,,0.00,weatherlink.com 1.10,2013-03-01 01:12:00,
2013-02-28 19:27:00,30.1,26.0,30.22,WNW,285,1.0,4.0,84,0.00,,,0.00,weatherlink.com 1.10,2013-03-01 01:27:00,
2013-02-28 19:42:00,30.0,26.0,30.22,NW,308,1.0,3.0,84,0.00,,,0.00,weatherlink.com 1.10,2013-03-01 01:42:00,
2013-02-28 19:57:00,29.9,26.0,30.22,WNW,294,1.0,3.0,84,0.00,,,0.00,weatherlink.com 1.10,2013-03-01 01:57:00,
2013-02-28 20:12:00,29.8,26.0,30.22,NW,317,1.0,4.0,84,0.00,,,0.00,weatherlink.com 1.10,2013-03-01 02:12:00,
2013-02-28 20:27:00,29.8,26.0,30.22,West,265,0.0,5.0,84,0.00,,,0.00,weatherlink.com 1.10,2013-03-01 02:27:00,
2013-02-28 20:42:00,29.8,26.0,30.22,NNW,335,2.0,4.0,84,0.00,,,0.00,weatherlink.com 1.10,2013-03-01 02:42:00,
2013-02-28 20:57:00,29.7,25.0,30.22,NW,312,4.0,5.0,84,0.00,,,0.00,weatherlink.com 1.10,2013-03-01 02:57:00,
2013-02-28 21:12:00,29.7,25.0,30.23,NW,309,2.0,5.0,84,0.00,,,0.00,weatherlink.com 1.10,2013-03-01 03:12:00,
2013-02-28 21:27:00,29.7,25.0,30.23,NW,312,0.0,4.0,84,0.00,,,0.00,weatherlink.com 1.10,2013-03-01 03:27:00,
2013-02-28 21:42:00,29.6,26.0,30.23,WNW,297,0.0,3.0,85,0.00,,,0.00,weatherlink.com 1.10,2013-03-01 03:42:00,
2013-02-28 21:57:00,29.6,26.0,30.23,WNW,297,0.0,2.0,85,0.00,,,0.00,weatherlink.com 1.10,2013-03-01 03:57:00,
2013-02-28 22:13:00,29.5,26.0,30.23,WNW,291,0.0,2.0,85,0.00,,,0.00,weatherlink.com 1.10,2013-03-01 04:13:00,
2013-02-28 22:27:00,29.5,26.0,30.22,WNW,291,1.0,2.0,85,0.00,,,0.00,weatherlink.com 1.10,2013-03-01 04:27:00,
2013-02-28 22:42:00,29.5,26.0,30.22,WNW,284,1.0,3.0,85,0.00,,,0.00,weatherlink.com 1.10,2013-03-01 04:42:00,
2013-02-28 22:57:00,29.5,26.0,30.21,WNW,296,1.0,2.0,85,0.00,,,0.00,weatherlink.com 1.10,2013-03-01 04:57:00,
2013-02-28 23:12:00,29.6,26.0,30.21,WSW,257,1.0,5.0,85,0.00,,,0.00,weatherlink.com 1.10,2013-03-01 05:12:00,
2013-02-28 23:27:00,29.5,26.0,30.21,WNW,294,1.0,4.0,85,0.00,,,0.00,weatherlink.com 1.10,2013-03-01 05:27:00,
2013-02-28 23:42:00,29.5,26.0,30.21,North,10,2.0,2.0,85,0.00,,,0.00,weatherlink.com 1.10,2013-03-01 05:42:00,
2013-02-28 23:57:00,29.4,25.0,30.21,WNW,302,0.0,3.0,84,0.00,,,0.00,weatherlink.com 1.10,2013-03-01 05:57:00,